Home   Weather   Salinas   Past weeks

Flag for USA Past Weather in Salinas, California, USA — Yesterday and Last 2 Weeks

59 °F


Feels Like: 58 °F
Forecast: 54 / 69 °F
Wind: 7 mph from Southwest

Location: Salinas Municipal Airport

Current Time: Oct 25, 2016 at 10:46:07 PM

Latest Report: Oct 25, 2016 at 9:53 PM

Visibility: 10 mi

Pressure: 30.07 "Hg

Humidity: 81%

Dew Point: 53 °F

Location of SalinasLocation

Past Weather in Salinas — Graph


Salinas Temperature Yesterday

Maximum temperature yesterday: 72 °F (at 2:53 PM)
Minimum temperature yesterday: 54 °F (at 7:53 AM)
Average temperature yesterday: 63 °F

High & Low Weather Summary for the Past Weeks

High83 °F (Oct 20, 1:53 PM)100% (Oct 22, 3:53 AM)30.21 "Hg (Oct 22, 3:53 AM)
Low44 °F (Oct 23, 6:53 AM)21% (Oct 19, 1:53 PM)29.83 "Hg (Oct 16, 1:53 PM)
Average61 °F72%30.03 "Hg
* Reported Oct 10 8:53 PM — Oct 25 8:53 PM, Salinas, Weather by CustomWeather, © 2016

Note: Actual official high and low records may vary slightly from our data, if they occured in-between our weather recording intervals... More about our weather records


Salinas Weather History for the Previous 24 Hours

Scroll right to see more
Time TempWeatherWind HumidityBarometerVisibility
8:53 PM
Tue, Oct 25
61 °FClear.7 mph75%30.06 "Hg10 mi
7:53 PM61 °FClear.10 mph78%30.06 "Hg10 mi
6:53 PM62 °FClear.9 mph75%30.06 "Hg10 mi
5:53 PM64 °FScattered clouds.14 mph73%30.05 "Hg10 mi
4:53 PM69 °FPartly sunny.17 mph59%30.04 "Hg10 mi
3:53 PM74 °FSunny.14 mph48%30.04 "Hg10 mi
2:53 PM76 °FSunny.No wind40%30.05 "Hg10 mi
1:53 PM75 °FPartly sunny.8 mph42%30.07 "Hg10 mi
12:53 PM71 °FMore clouds than sun.9 mph49%30.10 "Hg10 mi
11:53 AM68 °FMore clouds than sun.14 mph53%30.11 "Hg10 mi
10:53 AM65 °FPartly sunny.20 mph59%30.11 "Hg10 mi
9:53 AM63 °FOvercast.17 mph63%30.12 "Hg10 mi
8:53 AM61 °FMostly cloudy.17 mph65%30.11 "Hg10 mi
7:53 AM60 °FOvercast.15 mph69%30.09 "Hg10 mi
6:53 AM59 °FOvercast.16 mph69%30.07 "Hg10 mi
5:53 AM59 °FOvercast.13 mph72%30.06 "Hg10 mi
4:53 AM59 °FOvercast.14 mph69%30.06 "Hg10 mi
3:53 AM59 °FOvercast.13 mph72%30.06 "Hg10 mi
2:53 AM60 °FPassing clouds.15 mph65%30.07 "Hg10 mi
1:53 AM60 °FPassing clouds.13 mph67%30.06 "Hg10 mi
12:53 AM61 °FPassing clouds.21 mph65%30.05 "Hg10 mi
11:53 PM
Mon, Oct 24
62 °FOvercast.15 mph62%30.05 "Hg10 mi
10:53 PM63 °FPassing clouds.16 mph56%30.04 "Hg10 mi
Weather by CustomWeather, © 2016

See weather overviewHow to use our weather pages